Regional Weather Roundup
Issued by NWS Portland, ME

Current Version | Previous Version | Text Only | Print | Product List | Glossary On
Versions: 1 2 3 4 5 6 7 8 9 10 11 12 13 14 15 16 17 18 19 20 21 22 23 24 25 26 27 28 29 30 31 32 33 34 35 36 37 38 39 40 41 42 43 44 45 46 47 48 49 50
000
ASUS41 KGYX 230410
RWRGYX
WEATHER ROUNDUP FOR MAINE AND NEW HAMPSHIRE
NATIONAL WEATHER SERVICE GRAY ME
1100 PM EST MON DEC 22 2014

MEZ002-005-006-010-012-015-018-020-021-024-026-027-029-230500-
MAINE

CITY           SKY/WX    TMP DP  RH WIND       PRES   REMARKS
PORTLAND       LGT RAIN  36  34  92 NE3       30.36S
SANFORD        CLOUDY    32  28  86 NW3       30.35S
BAR HARBOR     CLOUDY    36  36 100 N3        30.40S
WISCASSET      CLOUDY    35  33  92 VRB3      30.38S
ROCKLAND       CLOUDY    37  36  93 N3        30.38R
FRYEBURG       FLURRIES  31  29  92 CALM      30.36S
LEWISTONAUBURN CLOUDY    32  28  86 N6        30.35F
AUGUSTA        CLOUDY    31  30  96 N5        30.37F FOG
WATERVILLE     CLOUDY    32  27  80 N5        30.34F
BANGOR         FLURRIES  33  30  88 NE5       30.40S
GREENVILLE       N/A     26  24  92 E3        30.31S
MILLINOCKET    CLOUDY    29  27  92 CALM      30.41S
HOULTON        CLOUDY    28  24  85 CALM      30.40R
PRESQUE ISLE   CLOUDY    27  21  80 S8        30.38S
FRENCHVILLE    CLOUDY    23  22  96 S6        30.34S
CARIBOU        CLOUDY    26  23  88 S3        30.37S
$$

NHZ002-005-008-009-011-012-014-230500-
NEW HAMPSHIRE

CITY           SKY/WX    TMP DP  RH WIND       PRES   REMARKS
PORTSMOUTH     LGT RAIN  34  33  94 N6        30.32F FOG
ROCHESTER      LGT RAIN  34  32  92 N6        30.34R FOG
NASHUA         MOCLDY    36  35  96 CALM      30.33S
MANCHESTER     CLOUDY    36  34  92 NE6       30.31S FOG
CONCORD        CLOUDY    34  33  96 CALM      30.33S
LACONIA        CLOUDY    32  28  86 NE7       30.32S
PLYMOUTH       LGT SNOW  32  32 100 CALM      30.33S
BERLIN         CLOUDY    28  24  85 NW3       30.30F
WHITEFIELD     CLOUDY    32  26  78 E3        30.28S
JAFFREY        CLOUDY    33  32  96 CALM      30.27F FOG
KEENE          CLOUDY    36  32  87 CALM      30.28F
LEBANON        CLOUDY    33  30  88 NE3       30.29F
MT WASHINGTON  SNOW      18  18 100 S31         N/A  VSB 1/16WCI  -2
$$

VTZ005-007-008-230500-
VERMONT

CITY           SKY/WX    TMP DP  RH WIND       PRES   REMARKS
ST JOHNSBURY     N/A     31  27  85 MISG      30.29S
MONTPELIER     CLOUDY    32  29  88 S3        30.30S
BURLINGTON     CLOUDY    26  21  81 CALM      30.27F FOG
$$

MAZ007-012-024-CTZ003-RIZ002-NYZ038-NYZ072-230500-
SOUTHERN NEW ENGLAND AND NY

CITY           SKY/WX    TMP DP  RH WIND       PRES   REMARKS
BOSTON         CLOUDY    42  36  79 E12       30.32R
WORCESTER      FOG       34  34 100 NE7       30.26F VSB 1/4
NANTUCKET      CLOUDY    45  40  82 E10       30.27F
PROVIDENCE     CLOUDY    40  37  89 NE6       30.28F
HARTFORD       CLOUDY    39  35  86 N7        30.26F
ALBANY         CLOUDY    34  27  75 CALM      30.24S
NEW YORK CITY  LGT RAIN  43  43 100 NE10      30.19F FOG
$$

ANZ081-ANZ082-ANZ150-NHZ014-MEZ023>029-230500-
COASTAL MARINE OBSERVATIONS

STATION/POSITION TIME  TEMP    WIND        PRES    WAVE
                       AIR SEA DIR/SP/G            HT/PER
                 (UTC) (F)     (DEG/KT/KT) (MB)    (FT/S)
MOUNT DESERT ROC 0400   41                 1028.5R
MATINICUS ROCK   0400          130/ 15/ 17 1028.3R
PORTLAND WX BUOY 0350   44 44  120/ 14/ 19 1026.9F   4/ 6
WELLS            0300   34 39  360/  6/  9 1027.1S
ISLE OF SHOALS   0300   44     120/ 20/ 22 1025.7F
JEFFREYS LEDGE   0321      49                N/A     5/ 6
CASHES LEDGE BUO 0350   43 48  110/ 17/ 21 1027.0F   5/ 6
$$

.............KEY..............
   WCI - WIND CHILL
   TC  - TEMPERATURE IN CELSIUS
   VSB - VISIBILITY IN MILES
   HX  - HEAT INDEX
   FAIR- INDICATES FEW OR NO CLOUDS BELOW 12,000 FT, WITH NO
         SIGNIFICANT WEATHER AND/OR OBSTRUCTIONS TO VISIBILITY.




USA.gov is the U.S. government's official web portal to all federal, state and local government web resources and services.